Weather Roundup
Issued by NWS

Home | Current Version | Previous Version | Text Only | Print | Product List | Glossary On
Versions: 1 2 3 4 5 6 7 8 9 10 11 12 13 14 15 16 17 18 19 20 21 22 23 24 25 26 27 28 29 30 31 32 33 34 35 36 37 38 39 40 41 42 43 44 45 46 47 48 49 50
261
NZUS93 KARX 200359
HRRWXR

CURRENT HOURLY OBSERVATIONS ACROSS
MUCH OF THE UPPER MISSISSIPPI VALLEY
NATIONAL WEATHER SERVICE LA CROSSE WI
1100 PM CDT SAT AUG 19 2017


...SOUTHEAST MINNESOTA...


CITY           SKY/WX    TMP DP  RH WIND       PRES   REMARKS
ROCHESTER      CLEAR     63  61  93 S7        29.95S
ROCHESTER/MAYO FAIR      68  63  83 SE7       29.94S
WINONA         CLEAR     63  63 100 CALM      29.94S
AUSTIN         CLEAR     66  61  82 SE5       29.94S
ALBERT LEA     CLEAR     70  64  83 S6        29.94R
DODGE CENTER   CLEAR     61  59  94 S6        29.94S
PRESTON        CLEAR     64  59  85 S3        29.96S
OWATONNA       CLEAR     66  63  88 S8        29.92S
FARIBAULT      CLEAR     66  63  88 S3        29.92R
$$

...ELSEWHERE IN MINNESOTA...


CITY           SKY/WX    TMP DP  RH WIND       PRES   REMARKS
MINNEAPOLIS    PTCLDY    70  63  78 S6        29.90R
INTNL FALLS    CLEAR     66  58  75 VRB5      29.81S
DULUTH         PTCLDY    65  61  87 SW7       29.89S
RED WING       CLEAR     63  61  94 CALM      29.90S
REDWOOD FALLS  PTCLDY    68  64  87 S7        29.87R
MANKATO        CLEAR     68  64  87 S7        29.92R
WORTHINGTON    CLOUDY    70  64  81 S7        29.91S
FAIRMONT       PTCLDY    68  65  90 S6        29.91S
$$

...SOUTHWEST WISCONSIN...


CITY           SKY/WX    TMP DP  RH WIND       PRES   REMARKS
LA CROSSE      CLEAR     67  63  87 SE5       29.94R
PRAIRIE DU CHI CLEAR     64  60  86 SE5       29.95F
BOSCOBEL       CLEAR     61  60  97 CALM      29.96S FOG
LONE ROCK      NOT AVBL
PLATTEVILLE    CLEAR     67  63  86 SE5       29.99R
FORT MC COY    CLEAR     58  58  99 CALM      29.96S
CAMP DOUGLAS   FOG       55  55 100 CALM      29.96R VSB 1/2
MAUSTON-NEW LI CLEAR     60  59  97 CALM      29.96R
VIROQUA        FAIR      67  59  75 CALM      29.98R
WIS DELLS      CLEAR     63  59  87 S3        29.97S
$$

...ELSEWHERE IN WISCONSIN...


CITY           SKY/WX    TMP DP  RH WIND       PRES   REMARKS
MILWAUKEE      CLEAR     70  63  78 SW5       29.98R
MADISON        CLEAR     64  62  93 CALM      29.97R
GREEN BAY      CLEAR     63  62  97 CALM      29.94R
EAU CLAIRE     NOT AVBL
BLACK RVR FLS  FAIR      57  57 100 CALM      29.95R
MEDFORD        CLEAR     58  57  94 CALM      29.96S
WAUSAU         CLEAR     64  60  87 CALM      29.95R
WIS RAPIDS     CLEAR     60  59  96 CALM      29.97S
MARSHFIELD     CLEAR     63  59  87 SW5       29.96R
RICE LAKE      CLEAR     61  59  94 CALM      29.94S
$$

...NORTHEAST IOWA...


CITY           SKY/WX    TMP DP  RH WIND       PRES   REMARKS
WATERLOO       CLEAR     62  60  93 SE3       29.94R
DUBUQUE        CLEAR     64  60  87 CALM      29.98S
DECORAH        PTCLDY    66  63  88 SE5       29.95S
MASON CITY     PTCLDY    64  62  93 S5        29.96R
CHARLES CITY   CLEAR     66  64  94 SE5       29.95S
OELWEIN        CLEAR     64  63  94 SE6       29.97R
$$

...ELSEWHERE IN IOWA...


CITY           SKY/WX    TMP DP  RH WIND       PRES   REMARKS
DES MOINES     MOCLDY    76  65  68 E8        29.92S
IOWA CITY      CLEAR     70  63  78 CALM      29.97R
FORT DODGE     MOCLDY    72  64  78 SE9       29.93F
MARSHALLTOWN   MOCLDY    67  65  93 SE7       29.94R
CEDAR RAPIDS   CLEAR     65  63  93 SE5       29.95R
$$

...NORTHERN ILLINOIS...


CITY           SKY/WX    TMP DP  RH WIND       PRES   REMARKS
CHICAGO-OHARE  CLEAR     71  54  54 SE3       29.98R
CHICAGO-MIDWAY CLEAR     74  54  49 S5        29.98R
MOLINE         CLEAR     66  61  84 E5        29.95S
ROCKFORD       CLEAR     65  61  87 SE3       29.99S
PEORIA         CLEAR     70  64  81 E6        29.97R
$$

NOTE: "FAIR" INDICATES FEW OR NO CLOUDS BELOW 12,000 FEET WITH NO
SIGNIFICANT WEATHER AND/OR OBSTRUCTIONS TO VISIBILITY. WIND
SPEEDS ARE IN MILES-PER-HOUR.




USA.gov is the U.S. government's official web portal to all federal, state and local government web resources and services.